Location: Gwatt
(46.7204°N, 7.6223°E)
Time: 06:33:21
(UTC+00:00)

USA 234 - Pass Details

Date: 18 September 2020
Orbit: 1102 x 1106 km, 123.0° (Epoch: 16 October)

Event Time Altitude Azimuth Distance (km) Brightness Sun altitude
Exits shadow 20:19:21 - 52° (NE) 3,033 5.4 -27.2°
Reaches altitude 10° 20:19:32 10° 52° (NE) 2,967 5.4 -27.3°
Maximum altitude 20:26:06 85° 326° (NW) 1,113 3.2 -28.2°
Drops below altitude 10° 20:32:39 10° 238° (WSW) 2,959 5.7 -29.1°
Sets 20:35:07 0° 238° (WSW) 3,915 6.4 -29.4°
